Tracking 19846 objects as of 19-Sep-2019
HD Live streaming from Space Station
objects crossing your sky now

FENGYUN 1C DEB

Track FENGYUN 1C DEB now!
10-day predictions


NORAD ID: 31962
Int'l Code: 1999-025CNP
Perigee: 661.6 km
Apogee: 780.4 km
Inclination: 99.0 °
Period: 99.1 minutes
Semi major axis: 7091 km
RCS: 0.0082 m2 (small)
Launch date: May 10, 1999
Source: People's Republic of China (PRC)
Launch site: Taiyaun Space Center, China (TSC)

Note: This is SATELLITE DEBRIS
aabbcc
Your satellite tracking list
Your tracking list is empty




NASA's NSSDC Master Catalog

Two Line Element Set (TLE):
1 31962U 99025CNP 13081.18873934  .00021246  00000-0  48483-2 0  9996
2 31962  99.0047 219.3019 0083781 168.6678 320.5029 14.53623579303996
Source of the keplerian elements: AFSPC